Location: Finkenwalde
(53.3770°N, 14.6418°E)
Time: 19:02:27
(UTC+00:00)

Cosmos 676 Rocket - Visible Passes

Search period start: 30 September 2023 00:00
Search period end: 10 October 2023 00:00
Orbit: 753 x 782 km, 74.0° (Epoch: 30 September)

Date Brightness Start Highest point End Pass type
(mag) Time Alt. Az. Time Alt. Az. Time Alt. Az.
30 Sep 6.6 03:46:14 10° N 03:49:32 16° NE 03:52:51 10° ENE visible
30 Sep 6.5 20:21:02 11° NE 20:21:02 11° NE 20:21:15 10° NE visible
30 Sep 6.2 22:01:17 21° N 22:01:17 21° N 22:03:17 10° NNE visible
30 Sep 6.7 23:41:31 11° NW 23:42:14 12° NNW 23:44:06 10° N visible
01 Oct 6.8 03:09:31 10° N 03:11:52 13° NNE 03:14:12 10° NE visible
01 Oct 6.2 21:24:38 20° NNE 21:24:38 20° NNE 21:26:15 10° NNE visible
01 Oct 6.6 23:04:53 15° NNW 23:04:53 15° NNW 23:07:29 10° N visible
02 Oct 7.0 02:33:25 10° NNE 02:34:06 10° NNE 02:34:47 10° NNE visible
02 Oct 6.0 04:13:30 10° NNW 04:18:04 29° NE 04:22:38 10° ESE visible
02 Oct 6.2 20:47:57 17° NNE 20:47:57 17° NNE 20:49:09 10° NNE visible
02 Oct 6.5 22:28:12 18° NNW 22:28:12 18° NNW 22:30:40 10° N visible
03 Oct 6.5 03:36:34 10° N 03:40:34 21° NE 03:44:34 10° E visible
03 Oct 6.3 20:11:16 14° NNE 20:11:16 14° NNE 20:11:58 10° NNE visible
03 Oct 6.3 21:51:30 20° N 21:51:30 20° N 21:53:44 10° NNE visible
04 Oct 6.7 02:59:42 10° N 03:02:58 16° NE 03:06:14 10° ENE visible
04 Oct 6.4 19:34:31 11° NE 19:34:31 11° NE 19:34:41 10° NE visible
04 Oct 6.1 21:14:45 21° N 21:14:45 21° N 21:16:45 10° NNE visible
04 Oct 6.8 22:54:59 12° NW 22:55:38 12° NNW 22:57:37 10° N visible
05 Oct 6.8 02:22:58 10° N 02:25:16 13° NNE 02:27:34 10° NE visible
05 Oct 5.5 04:03:57 10° NNW 04:08:54 39° NE 04:13:52 10° ESE visible
05 Oct 6.0 20:37:56 21° NNE 20:37:56 21° NNE 20:39:43 10° NNE visible
05 Oct 6.6 22:18:09 15° NNW 22:18:09 15° NNW 22:20:58 10° N visible
06 Oct 7.1 01:46:59 10° NNE 01:47:29 10° NNE 01:48:01 10° NNE visible
06 Oct 6.1 03:26:56 10° NNW 03:31:29 28° NE 03:36:02 10° ESE visible
06 Oct 5.9 20:01:00 20° NNE 20:01:00 20° NNE 20:02:36 10° NNE visible
06 Oct 6.4 21:41:13 19° NNW 21:41:13 19° NNW 21:44:08 10° N visible
07 Oct 6.5 02:50:01 10° N 02:53:58 21° NE 02:57:57 10° E visible
07 Oct 4.2 04:31:34 10° NNW 04:36:53 82° ENE 04:42:12 10° SSE visible
07 Oct 5.8 19:23:55 19° NNE 19:23:55 19° NNE 19:25:25 10° NNE visible
07 Oct 6.0 21:04:06 24° NNW 21:04:06 24° NNW 21:07:12 10° NNE visible
08 Oct 6.8 02:13:09 10° N 02:16:22 16° NE 02:19:36 10° ENE visible
08 Oct 4.8 03:54:26 10° NNW 03:59:39 55° ENE 04:04:52 10° SE visible
08 Oct 5.5 18:38:13 10° S 18:46:20 21° NE 18:48:07 10° NE visible
08 Oct 5.5 20:26:28 33° NNW 20:26:28 33° NNW 20:30:12 10° NNE visible
08 Oct 6.9 22:06:56 10° NW 22:09:01 12° NNW 22:11:07 10° N visible
09 Oct 6.9 01:36:26 10° N 01:38:40 12° NNE 01:40:54 10° NE visible
09 Oct 5.5 03:17:23 10° NNW 03:22:19 38° NE 03:27:16 10° ESE visible
09 Oct 4.7 18:01:46 10° SSE 18:06:11 29° E 18:10:40 10° NE visible
09 Oct 4.6 19:42:54 10° SW 19:47:59 54° WNW 19:53:09 10° NNE visible
09 Oct 6.7 21:28:12 10° WNW 21:31:18 16° NW 21:34:26 10° N visible
